Погода Лубны

Погода Лубны : погода сейчас, прогноз погоды и архив. Всё, что Вы хотите узнать о погоде Лубны!

Поиск расширенной информации на нашем сайте:

Другие новости

Новости СМИ2

Главная страница сайта

Новости сайта

03.07.2017

Напоминаем, что на нашем специализированном сайте Метеоцентр.Азия вы можете получить высокодетализированные автоматические прогнозы погоды по пунктам России, СНГ и мира в авиационном формате (включающие направление и скорость ветра, видимость, явления погоды, количество и форму облачности, нижнюю и верхнюю границу облачности).


Погода Лубны - сегодня

Время (UTC), дата Ветер
(°,м/с) 
Видим.   Явления Облачность Т
(°С)
Тd
(°С)
f(%) Тe
(°С)
Pmin
(гПа)
dP
(гПа)
Po
(мм)
O2
(г/м3)
Тmin Tmax R s Состояние
почвы
09 08.12.17 230 (ЮЗ) 3900 м  дымка{морось, туман}  9/9 420 м 
[St]
+2.7 +2.2 96 +2  1015.3  0.2  747  298           
12 08.12.17 220 (ЮЗ) 10 км  {морось, туман}  3/3 1000 м 
[Cu hum]
+5.4 +0.5 71 +4  1013.8  -1.3  746  295      0.1     
15 08.12.17 150 (ЮВ) 10 км    ясно 
+3 +0.3 82 +2  1013.8  -0.2  746  297           
18 08.12.17 160 (Ю) 10 км  дымка  ясно 
+1.6 +0.2 90 +2  1014.3  0.4  746  299    +5.8  0.1     
21 08.12.17 160 (Ю) 4000 м  дымка  ясно 
+1 -0.1 92 1014.2  -0.1  746  299           
00 09.12.17 160 (Ю) 4000 м  дымка  ясно 
+0.2 -0.9 92 -1  1013.9  -0.4  746  300           
03 09.12.17 160 (Ю) 1000 м  дымка  ясно 
+0.7 +0.4 98 -1  1013.1  -0.7  745  299           
06 09.12.17 150 (ЮВ) 1600 м  дымка  10/10 450 м 
[St]
+1.4 +1.1 98 +1  1012.3  -0.7  745  298  +0      <0.5  мокрый или
старый снег
10-40% 
09 09.12.17 160 (Ю) 0900 м  туман  ?/?  
+1.2 +1.2 100 +1  1011.9  -0.4  744  298           
12 09.12.17 150 (ЮВ) 4800 м  дымка{туман}  10/10 360 м 
[St]
+1.7 +0.4 91 +1  1011.2  -0.7  744  298           
15 09.12.17 120 (ЮВ) 4000 м  дымка  10/10 420 м 
[St]
+2.1 +0.8 91 +3  1011  -0.2  744  297           
18 09.12.17 100 (В) 4000 м  дымка  10/10 360 м 
[St]
+2.1 +1 92 +3  1010.3  -0.7  743  297    +2.1       
21 09.12.17 120 (ЮВ) 2000 м  дымка  10/10 330 м 
[St]
+3.6 +2.9 95 +3  1008.8  -1.3  742  295           
00 10.12.17 120 (ЮВ) 0200 м  туман  ?/?  
+4.5 +4.5 100 +4  1007  -1.7  741  293           
03 10.12.17 120 (ЮВ) 0500 м  туман  ?/?  
+6.3 +6.3 100 +6  1005.4  -1.5  740  290           
06 10.12.17 110 (В) 3500 м  дымка{туман}  10/10 360 м 
[St]
+7 +6.3 95 +7  1004.3  -1  739  289  +2.1         
09 10.12.17 120 (ЮВ) 6000 м  дымка  10/10 300 м 
[St]
+7.7 +6.6 93 +7  1002.8  -1.4  738  288           
15 10.12.17 120 (ЮВ) 4000 м  слаб. ливневой дождь  10/10 300 м кучево-дожд. 
[Cb calv]
+8.2 +7.3 94 +7  996.1  -4  733  285           
18 10.12.17 140 (ЮВ) 10 км  {ливн. осадки}  10/8 600 м средняя 
[Sc|Ac und]
+7.5 +5.3 86 +5  993.5  -2.6  731  286    +8.2     
21 10.12.17 240 (ЮЗ) 4000 м  слаб. дождь со снегом  10/9 300 м средняя 
[Frnb|As op]
+0.8 +0 94 -2  996.5  2.4  733  294           
00 11.12.17 270 (З) 10  2000 м  слаб. снег{дождь}  10/9 300 м средняя 
[Frnb|As op]
-1.2 -1.7 96 -6  1001.6  4.9  737  298         
03 11.12.17 250 (З) 10 км  {снег}  ясно 
-1.4 -3.1 88 -6  1008.3  6.5  741  301           
06 11.12.17 200 (Ю) 10 км  {снег}  9/0 средняя 
[Ac trans]
-2.6 -4.5 87 -6  1011.6  3.2  744  303  -2.6    равномерный
сухой снег
100% 
09 11.12.17 140 (ЮВ) 10 км    9/6 600 м средняя 
[Sc|Ac trans]
-0.4 -3.4 80 -2  1012.4  0.9  744  301           
12 11.12.17 150 (ЮВ) 10 км    10/0 средняя 
[Ac As]
+0.3 -3.3 77 -1  1012.7  0.4  745  300           
Время (UTC), дата Ветер
(°,м/с) 
Видим.   Явления Облачность Т
(°С)
Тd
(°С)
f(%) Тe
(°С)
Pmin
(гПа)
dP
(гПа)
Po
(мм)
O2
(г/м3)
Тmin Tmax R s Состояние
почвы

Для получения пояснительной информации подведите курсор к названию столбца.

ПОГОДА Лубны - архив

Всё, что Вы хотите узнать о погоде Лубны - удобно и подробно!

Выберите нужную дату (начиная с 1 января 2015* года) и нажмите кнопку "Найти".
Будут отображены архивные сводки погоды по пункту Лубны, начиная с указанной даты.


Отображать данные в формате CSV (для использования в таблицах Excel)


Внимание! Наш архив погоды предназначен исключительно для личного некоммерческого использования в познавательных целях. Если Вам необходимы официальные справки о состоянии погоды (для производственных, юридических, коммерческих и т.п. целей), обращайтесь в органы Росгидромета.

*Примечание: данная дата относится к архиву по метеостанциям СССР (Россия, СНГ, Балтия).
Архив по метеостанциям Зарубежной Европы и Азии (кроме Китая) хранится 10 дней, по другим регионам земного шара (Китай, Африка, Америка, Австралия, Океания) - 1 день.

Лубны - район местоположения метеостанции


Название, широта, долгота, высота метеостанции:
Лубны 50°ш. 33°д. 158 м над ур. моря [Украина]

Дополнительная информация

В oтличие oт бoльшинства пoгoдных сайтoв мы публикуем пoдрoбную метеoинфoрмацию в детальнoм прoфессиoнальнoм фoрмате.

Характеристики температуры и влажнoсти вoздуха измеряются на высoте 2 м в тени вдали oт зданий и деревьев.
Скoрoсть ветра измеряется на высoте 10 м (на урoвне рoста челoвека скoрoсть ветра ниже в 1.5-2 раза). Если метеoстанция нахoдится в гoрoде или в лесу, тo скoрoсть ветра занижена на 2-4 м/с пo сравнению с oткрытым местoм. Скoрoсть ветра над акватoриями крупных рек и oзёр, а также на вершинах хoлмoв на 2-5 м/с выше, чем в oбычных услoвиях.
Атмoсфернoе давление в разных тoчках местнoсти мoжет значительнo oтличаться oт давления на метеoстанции, в зависимoсти oт услoвий рельефа (при пoдъёме на 10 м давление пoнижается примернo на 1 мм рт.ст.).